Location: Mountain Grove
(34.0887°N, 86.6172°W)
Time: 00:01:29
(UTC+00:00)

DELTA 2 R/B (1) - Pass Details

Date: 14 July 2020
Orbit: 790 x 803 km, 39.6° (Epoch: 12 August)

Event Time Altitude Azimuth Distance (km) Brightness Sun altitude
Rises 04:31:42 0° 292° (WNW) 3,287 7.3 -31.1°
Reaches altitude 10° 04:34:11 10° 293° (WNW) 2,358 6.5 -31.3°
Enters shadow 04:37:57 45° 296° (WNW) 1,080 4.4 -31.6°
